HB9KNR Weather Reports


Display with metric or nautical units.
time (UTC)temp
F
wind
direction
speed
MPH
gust
MPH
rain 1hr
in
rain 24hr
in
rain mn
in
humidity
%
barometer
mb
20260504081516 62 0.0 0.0 0.00 0.00 0.00 64 1014.1
20260504080516 62 0.0 0.0 0.00 0.00 0.00 64 1014.2
20260504050516 50 0.0 0.0 0.00 0.00 0.00 87 1014.5
20260504045516 50 0.0 0.0 0.00 0.00 0.00 86 1014.3
20260504044516 49 0.0 0.0 0.00 0.00 0.00 86 1014.4
20260504043536 49 0.0 0.0 0.00 0.00 0.00 85 1014.4
20260504042535 50 0.0 0.0 0.00 0.00 0.00 84 1014.5
20260504041516 50 0.0 0.0 0.00 0.00 0.00 84 1014.5
20260504040516 50 0.0 0.0 0.00 0.00 0.00 83 1014.6
20260504035516 50 0.0 0.0 0.00 0.00 0.00 83 1014.7
20260504034536 50 0.0 0.0 0.00 0.00 0.00 83 1014.7
20260504033515 51 0.0 0.0 0.00 0.00 0.00 83 1015.0
20260504032516 51 0.0 0.0 0.00 0.00 0.00 82 1014.8
20260504031516 51 0.0 0.0 0.00 0.00 0.00 82 1014.8
20260504030516 51 0.0 0.0 0.00 0.00 0.00 81 1014.8
20260504025516 51 0.0 0.0 0.00 0.00 0.00 80 1015.1
20260504024516 52 0.0 0.0 0.00 0.00 0.00 80 1015.2
20260504023515 52 0.0 0.0 0.00 0.00 0.00 79 1015.2
20260504022536 52 0.0 0.0 0.00 0.00 0.00 78 1015.1
20260504021516 53 0.0 0.0 0.00 0.00 0.00 77 1015.1
20260504020535 53 0.0 0.0 0.00 0.00 0.00 77 1015.2
20260504015515 53 0.0 0.0 0.00 0.00 0.00 76 1015.2
20260504014535 54 0.0 0.0 0.00 0.00 0.00 75 1015.2
20260504013515 54 0.0 0.0 0.00 0.00 0.00 75 1015.2
20260504012515 55 0.0 0.0 0.00 0.00 0.00 75 1015.2
20260504011515 55 0.0 0.0 0.00 0.00 0.00 75 1015.2
20260504010515 55 0.0 0.0 0.00 0.00 0.00 75 1015.2
20260504005516 55 0.0 0.0 0.00 0.00 0.00 75 1015.4
20260504004515 55 0.0 0.0 0.00 0.00 0.00 75 1015.2
20260504003515 56 0.0 0.0 0.00 0.00 0.00 75 1015.2
20260504002515 56 0.0 0.0 0.00 0.00 0.00 75 1015.3
20260504001517 56 0.0 0.0 0.00 0.00 0.00 74 1015.4
20260504000517 56 0.0 0.0 0.00 0.00 0.00 75 1015.2
20260503235517 56 0.0 0.0 0.00 0.00 0.00 74 1015.3
20260503234518 56 0.0 0.0 0.00 0.00 0.00 73 1015.5
20260503233557 56 0.0 0.0 0.00 0.00 0.00 73 1015.8
20260503232517 56 0.0 0.0 0.00 0.00 0.00 72 1015.9
20260503231517 56 0.0 0.0 0.00 0.00 0.00 72 1015.7
20260503230518 56 0.0 0.0 0.00 0.00 0.00 71 1015.6
20260503225517 56 0.0 0.0 0.00 0.00 0.00 71 1015.7
20260503224517 56 0.0 0.0 0.00 0.00 0.00 70 1015.7
20260503223517 57 0.0 0.0 0.00 0.00 0.00 69 1015.9
20260503222517 57 0.0 0.0 0.00 0.00 0.00 69 1015.8
20260503221517 57 0.0 0.0 0.00 0.00 0.00 67 1015.8
20260503220538 57 0.0 0.0 0.00 0.00 0.00 67 1015.7
20260503215516 57 0.0 0.0 0.00 0.00 0.00 67 1015.7
20260503214516 58 0.0 0.0 0.00 0.00 0.00 66 1015.6
20260503213516 58 0.0 0.0 0.00 0.00 0.00 65 1015.6
20260503212516 58 0.0 0.0 0.00 0.00 0.00 64 1015.5
20260503211516 59 0.0 0.0 0.00 0.00 0.00 64 1015.3
20260503210516 59 0.0 0.0 0.00 0.00 0.00 64 1015.1
20260503205516 59 0.0 0.0 0.00 0.00 0.00 64 1015.0
20260503204516 59 0.0 0.0 0.00 0.00 0.00 66 1014.9
20260503203520 59 0.0 0.0 0.00 0.00 0.00 64 1014.8
20260503202556 60 0.0 0.0 0.00 0.00 0.00 63 1014.8
20260503201536 60 0.0 0.0 0.00 0.00 0.00 62 1014.5
20260503200516 60 0.0 0.0 0.00 0.00 0.00 61 1014.5
20260503195536 61 0.0 0.0 0.00 0.00 0.00 61 1014.5
20260503194536 61 0.0 0.0 0.00 0.00 0.00 60 1014.3
20260503193516 62 0.0 0.0 0.00 0.00 0.00 58 1014.2
20260503192536 62 0.0 0.0 0.00 0.00 0.00 57 1014.2
20260503191516 63 0.0 0.0 0.00 0.00 0.00 55 1014.1
20260503190516 63 0.0 0.0 0.00 0.00 0.00 54 1013.9
20260503185516 64 0.0 0.0 0.00 0.00 0.00 52 1013.8
20260503184516 64 0.0 0.0 0.00 0.00 0.00 52 1013.9
20260503183516 64 0.0 0.0 0.00 0.00 0.00 52 1013.8
20260503182516 64 0.0 0.0 0.00 0.00 0.00 51 1013.5
20260503181556 65 0.0 0.0 0.00 0.00 0.00 50 1013.2
20260503180556 65 0.0 0.0 0.00 0.00 0.00 50 1013.3
20260503175516 65 0.0 0.0 0.00 0.00 0.00 50 1013.2
20260503174516 66 0.0 0.0 0.00 0.00 0.00 49 1013.0
20260503173516 66 0.0 0.0 0.00 0.00 0.00 48 1012.8
20260503172516 67 0.0 0.0 0.00 0.00 0.00 47 1012.9
20260503171516 67 0.0 0.0 0.00 0.00 0.00 46 1012.7
20260503170516 68 0.0 0.0 0.00 0.00 0.00 43 1012.5
20260503150516 76 0.0 0.0 0.00 0.00 0.00 36 1012.1
20260503130538 76 0.0 0.0 0.00 0.00 0.00 39 1013.2
20260503110517 73 0.0 0.0 0.00 0.00 0.00 49 1014.2